Theta_e
294 293 293 292 292 291 291 291 290 290 289 289 288 288 287 287 286 286 285 285 284 284 284 284 285 285 284 284 284 284 285 285 287 287 287 287 288 289 288 287 287 286 286
292 292 291 291 290 290 290 289 289 288 288 287 287 286 285 284 283 283 283 283 283 283 283 284 284 284 284 284 284 284 284 284 285 286 286 285 285 286 287 286 287 286 286
290 290 290 289 289 289 288 288 287 287 286 285 284 283 283 283 283 283 283 283 283 283 283 283 284 284 284 284 284 284 284 284 284 285 285 285 284 285 285 286 287 286 286
288 288 287 287 287 287 287 286 285 285 284 284 283 282 283 283 282 282 282 283 283 283 283 283 283 284 284 284 284 283 283 283 283 284 284 284 284 284 284 285 287 287 287
284 285 285 285 284 284 284 284 284 284 283 283 282 281 282 282 282 282 282 283 283 283 283 283 283 284 284 284 284 282 282 282 282 283 283 283 282 282 283 285 286 286 286
282 282 282 283 282 282 282 283 282 282 282 282 282 281 281 281 281 282 283 282 283 283 283 283 283 283 283 283 283 282 281 282 281 282 282 282 282 283 283 284 286 285 284
281 281 281 281 281 281 281 281 281 281 281 281 280 280 280 280 281 282 283 283 283 283 283 283 283 283 283 282 282 283 283 283 282 282 281 282 282 283 283 283 284 285 285
280 280 280 280 280 280 280 280 280 280 280 280 280 280 280 280 279 281 282 282 283 283 283 283 282 282 282 281 281 282 282 283 283 284 284 284 284 284 284 283 284 284 284
279 279 279 279 278 278 278 278 278 279 279 279 279 280 280 280 281 282 282 282 282 282 283 283 282 281 281 281 282 281 281 282 282 282 282 283 284 284 284 283 283 282 282
278 278 278 277 277 277 277 278 278 278 278 278 279 279 280 280 280 282 282 282 283 283 283 283 283 282 282 282 283 282 282 282 283 283 283 283 284 284 284 284 284 282 282
278 277 277 277 277 277 277 277 277 277 277 277 278 278 278 279 279 280 281 282 282 283 283 283 282 283 283 284 284 284 284 284 283 283 283 283 283 283 283 283 282 284 283
276 276 276 276 276 276 276 276 276 276 276 277 278 278 279 280 280 280 280 281 281 282 282 281 281 282 282 283 284 284 284 285 285 284 284 283 283 283 283 283 283 283 282
275 275 275 275 275 275 275 275 276 276 276 277 278 278 279 280 279 280 281 281 281 281 281 281 281 282 282 283 283 284 284 284 284 283 283 283 282 283 283 283 283 283 282
275 275 275 275 275 275 275 275 275 276 276 277 277 278 278 278 279 279 279 279 279 279 279 278 278 279 279 280 281 281 282 282 282 281 280 281 282 282 282 282 282 283 282
274 274 274 274 274 274 274 275 275 275 275 276 276 277 277 277 277 278 278 278 278 278 278 277 276 275 276 278 279 279 280 280 280 280 280 280 281 281 281 282 282 282 281
274 274 274 274 273 274 274 274 274 275 276 277 277 277 277 277 277 278 279 279 278 278 278 277 276 275 274 277 277 278 278 278 278 278 278 279 279 279 280 281 281 281 280
274 274 274 273 273 273 273 273 273 274 274 275 276 277 278 278 278 278 277 278 278 278 277 277 276 275 274 273 273 275 276 276 275 276 276 276 276 277 277 278 279 279 280
274 274 274 274 274 273 273 272 272 272 272 274 275 274 274 275 276 277 277 277 277 277 276 276 275 275 274 273 272 272 272 272 273 273 274 274 274 274 275 275 276 277 277
274 274 274 273 273 273 272 272 272 271 271 271 273 275 274 274 274 275 276 277 276 276 276 275 275 274 273 273 273 272 271 271 271 271 271 271 271 272 273 273 274 274 274
274 274 273 273 272 272 272 271 271 271 270 270 270 272 272 272 272 274 273 273 273 273 273 273 273 272 272 271 271 271 271 271 271 270 270 270 270 270 270 271 271 272 273
274 273 273 272 271 272 271 271 271 270 269 269 270 272 271 271 271 272 272 272 272 272 272 272 272 272 272 272 272 272 271 271 271 270 270 270 270 269 269 269 270 271 272
273 272 272 271 271 270 270 269 269 269 268 268 269 270 270 270 270 270 270 270 270 270 269 269 269 269 269 270 270 270 270 270 270 270 269 269 269 269 269 268 269 270 271
271 270 270 270 270 269 268 268 267 267 267 267 267 267 268 268 268 267 268 268 268 267 267 267 267 267 267 267 268 268 268 269 269 269 269 269 268 268 268 268 268 268 269
268 268 268 268 268 267 266 266 266 266 266 266 266 266 267 267 267 267 267 267 267 266 266 266 266 266 266 266 266 267 267 267 267 268 267 267 267 267 267 267 267 267 268
267 266 266 266 266 265 265 265 265 265 266 266 266 266 266 266 266 266 267 266 266 266 266 265 265 265 265 265 265 266 266 266 266 266 266 266 266 266 266 265 266 266 267
267 266 266 266 265 265 264 264 264 265 265 265 265 265 265 265 265 265 265 265 265 265 265 265 265 265 265 265 265 265 265 265 265 265 265 265 265 265 264 264 264 265 266
Wind_Speed
30 27 25 23 21 20 20 19 19 18 18 17 17 17 17 17 18 20 19 18 18 19 18 17 17 14 15 13 13 13 15 15 9 11 12 11 15 18 15 9 8 6 5
25 24 23 21 20 20 20 19 19 18 18 17 17 18 17 16 14 14 15 15 18 18 17 17 17 15 16 14 14 15 16 17 15 13 15 15 19 15 10 9 6 5 5
23 22 21 20 20 20 19 18 18 18 18 17 16 16 15 15 14 14 15 16 18 18 17 17 18 16 16 15 15 16 16 16 17 15 12 14 12 7 6 6 7 6 6
18 18 18 18 19 18 17 17 16 16 16 16 16 14 13 14 15 14 16 18 18 17 18 19 19 19 18 17 16 16 17 17 17 15 15 14 14 13 11 13 7 6 10
13 14 14 14 15 15 15 15 15 15 15 14 14 14 13 15 16 17 17 18 18 17 17 19 19 19 18 18 17 18 13 13 13 13 13 12 12 10 11 5 8 12 15
12 12 12 12 12 12 12 13 14 15 14 14 15 16 17 18 16 16 16 17 18 18 18 19 18 18 18 17 16 18 20 22 15 13 12 13 16 17 15 12 11 12 4
11 11 10 9 10 10 11 12 13 15 15 16 17 17 17 15 15 17 17 19 20 18 18 18 18 19 19 20 18 19 20 21 21 21 20 19 20 19 16 17 18 16 14
11 11 10 9 8 7 8 9 10 11 12 14 14 15 16 19 19 17 17 19 19 19 19 19 19 17 18 16 16 19 21 25 27 28 28 29 27 24 21 19 18 19 21
13 12 10 9 8 8 8 8 8 9 10 12 12 12 13 14 13 15 17 19 19 20 20 20 20 18 14 15 18 20 20 23 21 22 25 27 26 23 21 17 22 16 10
11 9 8 7 7 7 6 5 7 9 8 8 9 12 13 14 13 13 14 17 17 17 18 19 19 19 17 17 20 18 19 20 19 19 20 20 20 22 22 24 23 18 14
7 6 6 6 6 6 6 8 8 7 7 8 9 10 11 12 12 12 14 15 15 14 16 16 17 16 18 18 19 23 26 23 22 20 21 22 22 21 22 22 25 29 24
8 8 9 9 9 8 8 7 7 6 5 4 4 4 3 4 5 5 9 12 12 13 14 14 14 13 16 17 18 19 17 17 19 19 21 23 23 23 22 22 23 25 27
9 11 10 9 8 7 7 7 6 6 6 4 3 4 3 3 3 3 4 5 5 6 11 10 10 11 12 15 17 15 15 17 17 16 17 19 19 20 18 19 18 19 24
9 8 8 8 7 6 6 6 6 6 5 5 5 5 4 3 3 5 7 8 9 9 9 10 11 12 14 15 17 15 13 14 15 17 19 20 16 16 19 18 19 21 21
6 6 6 6 6 5 5 5 5 5 7 9 10 9 8 9 7 7 8 10 10 10 10 12 14 13 10 10 11 17 17 15 14 17 19 19 17 14 16 15 17 19 16
5 6 8 8 6 6 5 5 6 6 6 9 10 11 11 13 11 11 12 12 11 11 14 15 16 15 12 12 12 10 11 12 12 12 9 10 9 10 11 10 11 13 15
9 9 8 7 6 5 5 6 8 4 7 9 10 12 14 15 14 14 15 15 16 15 18 19 20 20 19 17 17 16 16 14 12 12 13 13 12 11 10 10 11 11 14
9 10 10 8 8 8 9 9 10 12 13 14 10 11 12 13 14 16 16 17 21 19 22 22 24 24 24 22 21 20 19 17 17 17 16 14 12 12 11 12 10 9 8
11 12 11 11 11 11 11 12 13 14 17 21 21 19 16 15 16 17 17 21 24 26 27 28 29 30 29 27 25 23 22 21 20 19 19 18 16 14 14 12 10 10 11
13 13 14 14 14 14 15 16 17 18 20 22 23 24 20 16 19 21 20 22 25 28 30 31 32 32 30 29 28 26 24 24 24 24 23 21 20 17 18 16 15 15 14
14 14 14 15 17 16 17 18 19 20 21 23 25 24 18 19 22 23 25 26 26 27 28 30 31 31 31 30 29 28 28 28 28 26 25 24 21 22 20 18 15 14 13
12 14 15 17 17 18 19 19 21 21 23 24 27 27 21 22 25 25 24 25 27 27 26 26 28 29 29 29 28 28 28 29 28 27 27 25 23 22 21 20 18 16 15
15 16 17 18 18 19 20 21 22 25 25 25 26 25 24 24 24 24 24 24 23 24 25 25 27 29 29 28 28 28 29 30 28 26 26 25 24 23 22 22 20 18 18
20 21 22 22 21 21 22 24 24 23 24 24 24 24 24 24 24 24 24 24 24 25 24 24 25 26 26 26 25 24 25 25 23 22 22 22 21 20 19 19 19 19 19
18 20 21 22 22 23 23 23 23 23 23 24 24 24 25 25 25 26 25 25 25 25 25 24 23 23 22 21 22 22 22 21 21 20 20 20 20 20 19 18 18 18 17
21 22 23 24 25 25 25 23 23 24 25 25 26 26 26 26 26 26 26 25 24 24 23 23 23 22 20 19 18 17 17 16 16 17 18 18 19 19 19 19 18 18 18
Wind_Direction
175 179 183 184 190 197 201 203 204 207 211 215 217 223 229 234 238 236 236 239 244 246 247 247 245 243 242 238 242 234 237 240 251 266 280 275 273 266 279 266 267 271 264
174 176 180 186 190 195 197 199 202 210 217 222 226 232 239 246 244 235 239 239 240 241 244 243 244 238 239 237 238 240 237 239 242 260 267 277 285 280 259 265 247 254 257
171 177 177 184 191 197 201 205 211 216 221 224 226 230 236 231 232 235 241 242 242 241 240 238 243 237 237 236 237 241 238 237 241 249 263 271 285 287 292 283 269 264 277
173 179 184 189 197 203 207 211 216 217 218 217 221 229 230 230 235 238 241 246 246 244 244 244 245 241 239 239 233 239 238 238 238 242 251 260 264 268 287 292 281 267 298
174 184 193 199 204 206 209 211 213 216 219 220 220 224 230 234 239 240 241 244 246 245 246 246 245 245 243 241 238 232 220 227 230 235 244 246 249 262 262 270 282 304 309
175 177 182 187 193 200 204 208 213 214 217 220 221 225 232 234 236 239 241 244 248 246 249 250 250 247 243 237 237 230 233 225 225 227 236 238 250 266 280 281 273 296 314
174 176 178 183 189 196 201 207 218 222 224 226 227 228 231 237 238 240 239 244 249 248 248 252 252 251 250 251 238 233 233 233 237 241 238 243 257 268 282 278 274 270 257
169 171 174 178 185 192 200 205 211 216 222 227 233 237 242 246 243 243 242 241 247 251 252 255 255 255 254 243 238 243 239 239 237 236 247 258 263 271 270 272 275 276 276
170 175 173 182 186 198 208 209 218 221 222 227 231 236 241 245 241 241 240 244 244 244 248 253 255 253 249 242 250 252 257 258 255 252 251 254 257 257 261 259 256 261 272
170 169 171 184 192 200 204 207 217 219 223 228 237 237 239 243 239 240 238 243 242 240 247 250 253 256 261 251 244 246 255 255 261 264 257 253 250 250 249 245 251 237 242
162 167 179 186 194 197 198 209 217 218 218 224 236 246 250 250 249 246 243 244 248 244 242 243 255 256 254 255 250 248 248 265 264 257 261 263 262 260 258 252 246 247 233
168 182 191 193 186 192 196 207 204 200 202 206 238 255 259 248 232 239 244 242 250 254 256 264 268 262 260 257 255 258 257 259 260 254 252 257 262 264 265 263 255 250 250
179 189 189 185 187 191 189 193 187 187 195 211 233 252 271 216 206 248 248 236 247 276 256 262 265 257 262 262 259 254 256 256 255 258 251 253 254 276 284 279 272 262 256
181 178 188 188 182 186 198 206 205 203 207 222 237 235 237 240 252 250 251 268 276 282 289 289 285 278 274 271 267 262 257 260 266 272 278 277 276 273 272 273 268 264 257
186 184 189 195 197 198 210 219 229 235 236 235 240 250 264 272 264 252 267 277 282 286 286 289 296 299 289 278 275 262 260 256 263 276 268 276 271 273 273 272 267 260 242
191 199 201 201 217 219 230 233 243 259 260 255 255 264 276 277 273 263 263 267 269 274 275 280 286 294 287 281 283 275 261 264 269 273 280 274 270 270 267 265 264 258 249
216 213 215 223 229 246 263 282 295 259 257 254 258 262 263 270 268 266 269 267 265 266 263 272 277 282 284 278 274 271 272 277 276 273 270 272 275 276 273 269 263 264 258
244 244 248 253 258 264 268 271 276 285 293 290 265 267 263 269 267 265 264 267 265 259 261 264 270 275 279 280 275 275 275 274 272 271 270 270 270 270 268 262 256 255 261
256 263 268 270 269 270 270 268 269 270 272 279 289 285 283 277 270 265 261 256 261 264 262 263 268 272 275 276 274 272 272 270 269 268 268 269 269 262 263 261 260 254 256
265 270 272 272 271 271 269 268 269 269 275 279 282 285 294 290 280 276 268 262 261 263 267 267 270 274 275 274 274 271 267 264 262 261 260 262 265 262 263 264 262 257 253
266 267 267 268 268 270 270 269 271 273 274 276 279 287 287 279 276 276 282 283 278 276 276 278 279 279 277 275 273 270 264 262 260 260 260 259 258 257 258 261 257 251 248
274 273 270 268 272 270 271 274 275 275 275 275 280 285 281 272 272 273 275 277 281 284 284 283 282 280 280 278 276 274 270 265 262 261 261 259 256 254 254 253 252 248 245
284 281 278 276 277 278 277 277 277 276 273 272 275 279 280 278 279 279 280 284 287 287 286 284 282 282 282 280 278 273 269 266 265 265 262 259 256 253 251 249 248 243 243
279 276 274 275 275 273 274 277 276 273 270 270 273 274 276 279 281 285 288 291 293 292 291 287 284 283 284 283 280 276 272 271 269 264 261 258 254 250 247 246 246 245 243
277 272 268 268 269 271 275 274 274 272 273 274 274 277 280 280 281 282 284 287 289 291 290 288 287 286 286 285 281 278 274 269 265 260 256 254 250 246 245 245 244 243 240
279 274 271 271 271 271 270 267 267 270 269 273 275 277 278 279 280 281 283 284 282 282 285 285 285 287 289 287 284 280 274 268 261 254 248 242 241 243 244 244 242 239 236